iso_date,epoch_date,Year,Hour,Min,DOY,POS_DOY,Lat,Lon,BP,Ts,Ta,has_bp,has_ts,has_ta,BuoyID,Buoy_Type,Buoy_Owner,Logistics,Hemisphere
2018-09-13T06:30:14Z,1536820214,2018,6,30,256.271,256.271,81.6443,92.96821,-999.00,-2.15,-999.0,no,yes,no,300234011889340,SVP,AWI-USIABP,PACEX2,North
2018-09-13T07:00:28Z,1536822029,2018,7,0,256.292,256.292,81.61788,93.63702,-999.00,-2.55,-999.0,no,yes,no,300234011889340,SVP,AWI-USIABP,PACEX2,North
2018-09-13T07:29:16Z,1536823757,2018,7,30,256.312,256.312,81.5963,94.17611,-999.00,-2.5,-999.0,no,yes,no,300234011889340,SVP,AWI-USIABP,PACEX2,North
2018-09-13T07:59:31Z,1536825571,2018,8,0,256.333,256.333,81.56999,94.85241,-999.00,-2.55,-999.0,no,yes,no,300234011889340,SVP,AWI-USIABP,PACEX2,North
2018-09-13T08:29:45Z,1536827386,2018,8,30,256.354,256.354,81.5416,95.60145,-999.00,-2.55,-999.0,no,yes,no,300234011889340,SVP,AWI-USIABP,PACEX2,North
2018-09-13T09:00:00Z,1536829200,2018,9,0,256.375,256.375,81.5105,96.34758,-999.00,-2.4,-999.0,no,yes,no,300234011889340,SVP,AWI-USIABP,PACEX2,North
2018-09-13T09:30:14Z,1536831014,2018,9,30,256.396,256.396,81.47937,97.11423,-999.00,-2.2,-999.0,no,yes,no,300234011889340,SVP,AWI-USIABP,PACEX2,North
2018-09-13T10:00:28Z,1536832829,2018,10,0,256.417,256.417,81.44953,97.86565,-999.00,-2.15,-999.0,no,yes,no,300234011889340,SVP,AWI-USIABP,PACEX2,North
2018-09-13T10:30:43Z,1536834643,2018,10,30,256.438,256.438,81.4193,98.61651,-999.00,-2.1,-999.0,no,yes,no,300234011889340,SVP,AWI-USIABP,PACEX2,North
2018-09-13T10:59:31Z,1536836371,2018,11,0,256.458,256.458,81.38775,99.35349,-999.00,-1.85,-999.0,no,yes,no,300234011889340,SVP,AWI-USIABP,PACEX2,North
2018-09-13T11:29:45Z,1536838186,2018,11,30,256.479,256.479,81.35914,100.09502,-999.00,-1.85,-999.0,no,yes,no,300234011889340,SVP,AWI-USIABP,PACEX2,North
2018-09-13T12:00:00Z,1536840000,2018,12,0,256.5,256.5,81.32902,100.83521,-999.00,-1.2,-999.0,no,yes,no,300234011889340,SVP,AWI-USIABP,PACEX2,North
2018-09-13T12:30:14Z,1536841814,2018,12,30,256.521,256.521,81.29949,101.5628,-999.00,-1.05,-999.0,no,yes,no,300234011889340,SVP,AWI-USIABP,PACEX2,North
2018-09-13T13:00:28Z,1536843629,2018,13,0,256.542,256.542,81.26909,102.30446,-999.00,-1.0,-999.0,no,yes,no,300234011889340,SVP,AWI-USIABP,PACEX2,North
2018-09-13T13:29:16Z,1536845357,2018,13,30,256.562,256.562,81.23858,103.04266,-999.00,-0.95,-999.0,no,yes,no,300234011889340,SVP,AWI-USIABP,PACEX2,North
2018-09-13T13:59:31Z,1536847171,2018,14,0,256.583,256.583,81.20825,103.78174,-999.00,-0.95,-999.0,no,yes,no,300234011889340,SVP,AWI-USIABP,PACEX2,North
2018-09-13T14:29:45Z,1536848986,2018,14,30,256.604,256.604,81.17721,104.52666,-999.00,-0.9,-999.0,no,yes,no,300234011889340,SVP,AWI-USIABP,PACEX2,North
2018-09-13T15:00:00Z,1536850800,2018,15,0,256.625,256.625,81.17767,105.25685,-999.00,-0.9,-999.0,no,yes,no,300234011889340,SVP,AWI-USIABP,PACEX2,North
2018-09-13T15:30:14Z,1536852614,2018,15,30,256.646,256.646,81.20006,105.99758,-999.00,-0.85,-999.0,no,yes,no,300234011889340,SVP,AWI-USIABP,PACEX2,North
2018-09-13T16:00:28Z,1536854429,2018,16,0,256.667,256.667,81.22264,106.74968,-999.00,-0.85,-999.0,no,yes,no,300234011889340,SVP,AWI-USIABP,PACEX2,North
2018-09-13T16:30:43Z,1536856243,2018,16,30,256.688,256.688,81.2454,107.50371,-999.00,-0.85,-999.0,no,yes,no,300234011889340,SVP,AWI-USIABP,PACEX2,North
2018-09-13T16:59:31Z,1536857971,2018,17,0,256.708,256.708,81.26872,108.27017,-999.00,-0.9,-999.0,no,yes,no,300234011889340,SVP,AWI-USIABP,PACEX2,North
2018-09-13T17:29:45Z,1536859786,2018,17,30,256.729,256.729,81.28438,109.01771,-999.00,-0.9,-999.0,no,yes,no,300234011889340,SVP,AWI-USIABP,PACEX2,North
2018-09-13T18:00:00Z,1536861600,2018,18,0,256.75,256.75,81.25876,109.75253,-999.00,-0.9,-999.0,no,yes,no,300234011889340,SVP,AWI-USIABP,PACEX2,North
2018-09-13T18:30:14Z,1536863414,2018,18,30,256.771,256.771,81.29607,110.13129,-999.00,-0.85,-999.0,no,yes,no,300234011889340,SVP,AWI-USIABP,PACEX2,North
2018-09-13T19:00:28Z,1536865229,2018,19,0,256.792,256.792,81.32484,110.42836,-999.00,-0.85,-999.0,no,yes,no,300234011889340,SVP,AWI-USIABP,PACEX2,North
2018-09-13T19:29:16Z,1536866957,2018,19,30,256.812,256.812,81.34207,110.77522,-999.00,-0.85,-999.0,no,yes,no,300234011889340,SVP,AWI-USIABP,PACEX2,North
2018-09-13T19:59:31Z,1536868771,2018,20,0,256.833,256.833,81.34481,111.1229,-999.00,-0.9,-999.0,no,yes,no,300234011889340,SVP,AWI-USIABP,PACEX2,North
2018-09-13T20:29:45Z,1536870586,2018,20,30,256.854,256.854,81.35926,111.49739,-999.00,-0.9,-999.0,no,yes,no,300234011889340,SVP,AWI-USIABP,PACEX2,North
2018-09-13T21:00:00Z,1536872400,2018,21,0,256.875,256.875,81.37377,111.87315,-999.00,-0.95,-999.0,no,yes,no,300234011889340,SVP,AWI-USIABP,PACEX2,North
2018-09-13T21:30:14Z,1536874214,2018,21,30,256.896,256.896,81.38797,112.28149,-999.00,-0.9,-999.0,no,yes,no,300234011889340,SVP,AWI-USIABP,PACEX2,North
2018-09-13T22:00:28Z,1536876029,2018,22,0,256.917,256.917,81.398,112.69649,-999.00,-0.9,-999.0,no,yes,no,300234011889340,SVP,AWI-USIABP,PACEX2,North
2018-09-13T22:30:43Z,1536877843,2018,22,30,256.938,256.938,81.41118,113.14562,-999.00,-0.9,-999.0,no,yes,no,300234011889340,SVP,AWI-USIABP,PACEX2,North
2018-09-13T22:59:31Z,1536879571,2018,23,0,256.958,256.958,81.42343,113.60253,-999.00,-0.95,-999.0,no,yes,no,300234011889340,SVP,AWI-USIABP,PACEX2,North
2018-09-13T23:29:45Z,1536881386,2018,23,30,256.979,256.979,81.44118,114.09594,-999.00,-0.95,-999.0,no,yes,no,300234011889340,SVP,AWI-USIABP,PACEX2,North
2018-09-14T00:00:00Z,1536883200,2018,0,0,257.0,257.0,81.43911,114.48675,-999.00,-0.95,-999.0,no,yes,no,300234011889340,SVP,AWI-USIABP,PACEX2,North
2018-09-14T00:30:14Z,1536885014,2018,0,30,257.021,257.021,81.41087,114.82599,-999.00,-0.95,-999.0,no,yes,no,300234011889340,SVP,AWI-USIABP,PACEX2,North
2018-09-14T01:00:28Z,1536886829,2018,1,0,257.042,257.042,81.3925,115.18689,-999.00,-1.0,-999.0,no,yes,no,300234011889340,SVP,AWI-USIABP,PACEX2,North
2018-09-14T01:29:16Z,1536888557,2018,1,30,257.062,257.062,81.36354,115.46716,-999.00,-1.05,-999.0,no,yes,no,300234011889340,SVP,AWI-USIABP,PACEX2,North
2018-09-14T01:59:31Z,1536890371,2018,2,0,257.083,257.083,81.35988,115.83482,-999.00,-1.05,-999.0,no,yes,no,300234011889340,SVP,AWI-USIABP,PACEX2,North
2018-09-14T02:29:45Z,1536892186,2018,2,30,257.104,257.104,81.33668,116.1592,-999.00,-1.05,-999.0,no,yes,no,300234011889340,SVP,AWI-USIABP,PACEX2,North
2018-09-14T03:00:00Z,1536894000,2018,3,0,257.125,257.125,81.31323,116.51987,-999.00,-1.0,-999.0,no,yes,no,300234011889340,SVP,AWI-USIABP,PACEX2,North
2018-09-14T03:30:14Z,1536895814,2018,3,30,257.146,257.146,81.29626,116.88567,-999.00,-1.0,-999.0,no,yes,no,300234011889340,SVP,AWI-USIABP,PACEX2,North
2018-09-14T04:00:28Z,1536897629,2018,4,0,257.167,257.167,81.27473,117.23408,-999.00,-1.0,-999.0,no,yes,no,300234011889340,SVP,AWI-USIABP,PACEX2,North
2018-09-14T04:30:43Z,1536899443,2018,4,30,257.188,257.188,81.25665,117.58075,-999.00,-1.0,-999.0,no,yes,no,300234011889340,SVP,AWI-USIABP,PACEX2,North
2018-09-14T04:59:31Z,1536901171,2018,5,0,257.208,257.208,81.23471,117.92908,-999.00,-0.95,-999.0,no,yes,no,300234011889340,SVP,AWI-USIABP,PACEX2,North
2018-09-14T05:29:45Z,1536902986,2018,5,30,257.229,257.229,81.21484,118.27233,-999.00,-1.0,-999.0,no,yes,no,300234011889340,SVP,AWI-USIABP,PACEX2,North
2018-09-14T06:00:00Z,1536904800,2018,6,0,257.25,257.25,81.1962,118.6322,-999.00,-0.95,-999.0,no,yes,no,300234011889340,SVP,AWI-USIABP,PACEX2,North
2018-09-14T06:30:14Z,1536906614,2018,6,30,257.271,257.271,81.17599,118.96627,-999.00,-0.95,-999.0,no,yes,no,300234011889340,SVP,AWI-USIABP,PACEX2,North
2018-09-14T07:00:28Z,1536908429,2018,7,0,257.292,257.292,81.15566,119.32396,-999.00,-0.95,-999.0,no,yes,no,300234011889340,SVP,AWI-USIABP,PACEX2,North
2018-09-14T07:29:16Z,1536910157,2018,7,30,257.312,257.312,81.1338,119.67111,-999.00,-0.9,-999.0,no,yes,no,300234011889340,SVP,AWI-USIABP,PACEX2,North
2018-09-14T07:59:31Z,1536911971,2018,8,0,257.333,257.333,81.1113,120.03456,-999.00,-0.9,-999.0,no,yes,no,300234011889340,SVP,AWI-USIABP,PACEX2,North
2018-09-14T08:29:45Z,1536913786,2018,8,30,257.354,257.354,81.09991,120.4032,-999.00,-0.9,-999.0,no,yes,no,300234011889340,SVP,AWI-USIABP,PACEX2,North
2018-09-14T09:00:00Z,1536915600,2018,9,0,257.375,257.375,81.09826,120.68244,-999.00,-0.9,-999.0,no,yes,no,300234011889340,SVP,AWI-USIABP,PACEX2,North
2018-09-14T09:30:14Z,1536917414,2018,9,30,257.396,257.396,81.09589,120.97816,-999.00,-0.9,-999.0,no,yes,no,300234011889340,SVP,AWI-USIABP,PACEX2,North
2018-09-14T10:00:28Z,1536919229,2018,10,0,257.417,257.417,81.09344,121.34794,-999.00,-0.9,-999.0,no,yes,no,300234011889340,SVP,AWI-USIABP,PACEX2,North
2018-09-14T10:30:43Z,1536921043,2018,10,30,257.438,257.438,81.09082,121.71594,-999.00,-0.85,-999.0,no,yes,no,300234011889340,SVP,AWI-USIABP,PACEX2,North
2018-09-14T10:59:31Z,1536922771,2018,11,0,257.458,257.458,81.08816,122.10902,-999.00,-0.85,-999.0,no,yes,no,300234011889340,SVP,AWI-USIABP,PACEX2,North
2018-09-14T11:29:45Z,1536924586,2018,11,30,257.479,257.479,81.08573,122.50628,-999.00,-0.85,-999.0,no,yes,no,300234011889340,SVP,AWI-USIABP,PACEX2,North
2018-09-14T12:00:00Z,1536926400,2018,12,0,257.5,257.5,81.0828,122.90825,-999.00,-0.85,-999.0,no,yes,no,300234011889340,SVP,AWI-USIABP,PACEX2,North
2018-09-14T12:30:14Z,1536928214,2018,12,30,257.521,257.521,81.12028,123.12193,-999.00,-0.85,-999.0,no,yes,no,300234011889340,SVP,AWI-USIABP,PACEX2,North
2018-09-14T13:00:28Z,1536930029,2018,13,0,257.542,257.542,81.17431,123.27656,-999.00,-0.85,-999.0,no,yes,no,300234011889340,SVP,AWI-USIABP,PACEX2,North
2018-09-14T13:29:16Z,1536931757,2018,13,30,257.562,257.562,81.22751,123.4198,-999.00,-0.85,-999.0,no,yes,no,300234011889340,SVP,AWI-USIABP,PACEX2,North
2018-09-14T13:59:31Z,1536933571,2018,14,0,257.583,257.583,81.24331,123.47773,-999.00,-0.85,-999.0,no,yes,no,300234011889340,SVP,AWI-USIABP,PACEX2,North
2018-09-14T14:29:45Z,1536935386,2018,14,30,257.604,257.604,81.24397,123.47301,-999.00,-0.9,-999.0,no,yes,no,300234011889340,SVP,AWI-USIABP,PACEX2,North
2018-09-14T15:00:00Z,1536937200,2018,15,0,257.625,257.625,81.24425,123.48313,-999.00,-0.9,-999.0,no,yes,no,300234011889340,SVP,AWI-USIABP,PACEX2,North
2018-09-14T15:30:14Z,1536939014,2018,15,30,257.646,257.646,81.24561,123.48787,-999.00,-0.9,-999.0,no,yes,no,300234011889340,SVP,AWI-USIABP,PACEX2,North
2018-09-14T16:00:28Z,1536940829,2018,16,0,257.667,257.667,81.24509,123.48985,-999.00,-0.9,-999.0,no,yes,no,300234011889340,SVP,AWI-USIABP,PACEX2,North
2018-09-14T16:30:43Z,1536942643,2018,16,30,257.688,257.688,81.24421,123.4815,-999.00,-0.9,-999.0,no,yes,no,300234011889340,SVP,AWI-USIABP,PACEX2,North
2018-09-14T16:59:31Z,1536944371,2018,17,0,257.708,257.708,81.24391,123.48232,-999.00,-0.85,-999.0,no,yes,no,300234011889340,SVP,AWI-USIABP,PACEX2,North
2018-09-14T17:29:45Z,1536946186,2018,17,30,257.729,257.729,81.24395,123.48472,-999.00,-0.85,-999.0,no,yes,no,300234011889340,SVP,AWI-USIABP,PACEX2,North
2018-09-14T18:00:00Z,1536948000,2018,18,0,257.75,257.75,81.24398,123.49338,-999.00,-0.85,-999.0,no,yes,no,300234011889340,SVP,AWI-USIABP,PACEX2,North
2018-09-14T18:30:14Z,1536949814,2018,18,30,257.771,257.771,81.24415,123.51239,-999.00,-0.85,-999.0,no,yes,no,300234011889340,SVP,AWI-USIABP,PACEX2,North
2018-09-14T19:00:28Z,1536951629,2018,19,0,257.792,257.792,81.24392,123.53374,-999.00,-0.8,-999.0,no,yes,no,300234011889340,SVP,AWI-USIABP,PACEX2,North
2018-09-14T19:29:16Z,1536953357,2018,19,30,257.812,257.812,81.25075,123.423,-999.00,-0.8,-999.0,no,yes,no,300234011889340,SVP,AWI-USIABP,PACEX2,North
2018-09-14T19:59:31Z,1536955171,2018,20,0,257.833,257.833,81.28843,123.1121,-999.00,-0.8,-999.0,no,yes,no,300234011889340,SVP,AWI-USIABP,PACEX2,North
2018-09-14T20:29:45Z,1536956986,2018,20,30,257.854,257.854,81.32626,122.79694,-999.00,-0.8,-999.0,no,yes,no,300234011889340,SVP,AWI-USIABP,PACEX2,North
2018-09-14T21:00:00Z,1536958800,2018,21,0,257.875,257.875,81.36232,122.48473,-999.00,-0.8,-999.0,no,yes,no,300234011889340,SVP,AWI-USIABP,PACEX2,North
2018-09-14T21:30:14Z,1536960614,2018,21,30,257.896,257.896,81.39923,122.1582,-999.00,-0.8,-999.0,no,yes,no,300234011889340,SVP,AWI-USIABP,PACEX2,North
2018-09-14T22:00:28Z,1536962429,2018,22,0,257.917,257.917,81.43632,121.82959,-999.00,-0.75,-999.0,no,yes,no,300234011889340,SVP,AWI-USIABP,PACEX2,North
2018-09-14T22:30:43Z,1536964243,2018,22,30,257.938,257.938,81.48983,121.7233,-999.00,-0.75,-999.0,no,yes,no,300234011889340,SVP,AWI-USIABP,PACEX2,North
2018-09-14T22:59:31Z,1536965971,2018,23,0,257.958,257.958,81.54733,121.64581,-999.00,-0.75,-999.0,no,yes,no,300234011889340,SVP,AWI-USIABP,PACEX2,North
2018-09-14T23:29:45Z,1536967786,2018,23,30,257.979,257.979,81.60488,121.57007,-999.00,-0.7,-999.0,no,yes,no,300234011889340,SVP,AWI-USIABP,PACEX2,North
2018-09-15T00:00:00Z,1536969600,2018,0,0,258.0,258.0,81.66669,121.48648,-999.00,-0.7,-999.0,no,yes,no,300234011889340,SVP,AWI-USIABP,PACEX2,North
2018-09-15T00:30:14Z,1536971414,2018,0,30,258.021,258.021,81.72293,121.38194,-999.00,-0.7,-999.0,no,yes,no,300234011889340,SVP,AWI-USIABP,PACEX2,North
2018-09-15T01:00:28Z,1536973229,2018,1,0,258.042,258.042,81.77853,121.2463,-999.00,-0.7,-999.0,no,yes,no,300234011889340,SVP,AWI-USIABP,PACEX2,North
2018-09-15T01:29:16Z,1536974957,2018,1,30,258.062,258.062,81.83451,121.12294,-999.00,-0.65,-999.0,no,yes,no,300234011889340,SVP,AWI-USIABP,PACEX2,North
2018-09-15T01:59:31Z,1536976771,2018,2,0,258.083,258.083,81.89119,120.99176,-999.00,-0.65,-999.0,no,yes,no,300234011889340,SVP,AWI-USIABP,PACEX2,North
2018-09-15T02:29:45Z,1536978586,2018,2,30,258.104,258.104,81.94664,120.87284,-999.00,-0.65,-999.0,no,yes,no,300234011889340,SVP,AWI-USIABP,PACEX2,North
2018-09-15T03:00:00Z,1536980400,2018,3,0,258.125,258.125,81.99762,120.76597,-999.00,-0.65,-999.0,no,yes,no,300234011889340,SVP,AWI-USIABP,PACEX2,North
2018-09-15T03:30:14Z,1536982214,2018,3,30,258.146,258.146,82.03082,120.54396,-999.00,-0.65,-999.0,no,yes,no,300234011889340,SVP,AWI-USIABP,PACEX2,North
2018-09-15T04:00:28Z,1536984029,2018,4,0,258.167,258.167,82.04622,120.2121,-999.00,-0.7,-999.0,no,yes,no,300234011889340,SVP,AWI-USIABP,PACEX2,North
2018-09-15T04:30:43Z,1536985843,2018,4,30,258.188,258.188,82.06494,119.84568,-999.00,-0.7,-999.0,no,yes,no,300234011889340,SVP,AWI-USIABP,PACEX2,North
2018-09-15T04:59:31Z,1536987571,2018,5,0,258.208,258.208,82.06997,119.75778,-999.00,-0.75,-999.0,no,yes,no,300234011889340,SVP,AWI-USIABP,PACEX2,North
2018-09-15T05:29:45Z,1536989386,2018,5,30,258.229,258.229,82.06907,119.77414,-999.00,-0.8,-999.0,no,yes,no,300234011889340,SVP,AWI-USIABP,PACEX2,North
2018-09-15T06:00:00Z,1536991200,2018,6,0,258.25,258.25,82.06766,119.78611,-999.00,-0.85,-999.0,no,yes,no,300234011889340,SVP,AWI-USIABP,PACEX2,North
2018-09-15T06:30:14Z,1536993014,2018,6,30,258.271,258.271,82.06591,119.79379,-999.00,-0.85,-999.0,no,yes,no,300234011889340,SVP,AWI-USIABP,PACEX2,North
2018-09-15T07:00:28Z,1536994829,2018,7,0,258.292,258.292,82.06597,119.48289,-999.00,-0.9,-999.0,no,yes,no,300234011889340,SVP,AWI-USIABP,PACEX2,North
2018-09-15T07:29:16Z,1536996557,2018,7,30,258.312,258.312,82.06334,119.28284,-999.00,-0.9,-999.0,no,yes,no,300234011889340,SVP,AWI-USIABP,PACEX2,North
2018-09-15T07:59:31Z,1536998371,2018,8,0,258.333,258.333,82.06176,119.27823,-999.00,-0.9,-999.0,no,yes,no,300234011889340,SVP,AWI-USIABP,PACEX2,North
2018-09-15T08:29:45Z,1537000186,2018,8,30,258.354,258.354,82.06081,119.26829,-999.00,-0.9,-999.0,no,yes,no,300234011889340,SVP,AWI-USIABP,PACEX2,North
2018-09-15T09:00:00Z,1537002000,2018,9,0,258.375,258.375,82.06018,119.25159,-999.00,-0.95,-999.0,no,yes,no,300234011889340,SVP,AWI-USIABP,PACEX2,North
2018-09-15T09:30:14Z,1537003814,2018,9,30,258.396,258.396,82.01276,119.28824,-999.00,-1.0,-999.0,no,yes,no,300234011889340,SVP,AWI-USIABP,PACEX2,North
2018-09-15T10:00:28Z,1537005629,2018,10,0,258.417,258.417,81.95664,119.3218,-999.00,-0.95,-999.0,no,yes,no,300234011889340,SVP,AWI-USIABP,PACEX2,North
2018-09-15T10:30:43Z,1537007443,2018,10,30,258.438,258.438,81.95938,119.29806,-999.00,-0.95,-999.0,no,yes,no,300234011889340,SVP,AWI-USIABP,PACEX2,North
2018-09-15T10:59:31Z,1537009171,2018,11,0,258.458,258.458,81.96094,119.28314,-999.00,-0.9,-999.0,no,yes,no,300234011889340,SVP,AWI-USIABP,PACEX2,North
2018-09-15T11:29:45Z,1537010986,2018,11,30,258.479,258.479,81.96298,119.27333,-999.00,-1.05,-999.0,no,yes,no,300234011889340,SVP,AWI-USIABP,PACEX2,North
2018-09-15T12:00:00Z,1537012800,2018,12,0,258.5,258.5,81.95755,119.50277,-999.00,-1.3,-999.0,no,yes,no,300234011889340,SVP,AWI-USIABP,PACEX2,North
2018-09-15T12:30:14Z,1537014614,2018,12,30,258.521,258.521,81.95557,119.77631,-999.00,-1.55,-999.0,no,yes,no,300234011889340,SVP,AWI-USIABP,PACEX2,North
2018-09-15T13:00:28Z,1537016429,2018,13,0,258.542,258.542,81.95817,119.76825,-999.00,-1.65,-999.0,no,yes,no,300234011889340,SVP,AWI-USIABP,PACEX2,North
2018-09-15T13:29:16Z,1537018157,2018,13,30,258.562,258.562,81.96059,119.76684,-999.00,-1.9,-999.0,no,yes,no,300234011889340,SVP,AWI-USIABP,PACEX2,North
2018-09-15T13:59:31Z,1537019971,2018,14,0,258.583,258.583,81.96238,119.76356,-999.00,-1.85,-999.0,no,yes,no,300234011889340,SVP,AWI-USIABP,PACEX2,North
2018-09-15T14:29:45Z,1537021786,2018,14,30,258.604,258.604,81.94266,119.9379,-999.00,-1.85,-999.0,no,yes,no,300234011889340,SVP,AWI-USIABP,PACEX2,North
2018-09-15T15:00:00Z,1537023600,2018,15,0,258.625,258.625,81.90191,120.1974,-999.00,-1.9,-999.0,no,yes,no,300234011889340,SVP,AWI-USIABP,PACEX2,North
2018-09-15T15:30:14Z,1537025414,2018,15,30,258.646,258.646,81.85883,120.48979,-999.00,-2.0,-999.0,no,yes,no,300234011889340,SVP,AWI-USIABP,PACEX2,North
2018-09-15T16:00:28Z,1537027229,2018,16,0,258.667,258.667,81.80692,120.65264,-999.00,-1.9,-999.0,no,yes,no,300234011889340,SVP,AWI-USIABP,PACEX2,North
2018-09-15T16:30:43Z,1537029043,2018,16,30,258.688,258.688,81.75312,120.78296,-999.00,-1.9,-999.0,no,yes,no,300234011889340,SVP,AWI-USIABP,PACEX2,North
2018-09-15T16:59:31Z,1537030771,2018,17,0,258.708,258.708,81.69846,120.90363,-999.00,-2.0,-999.0,no,yes,no,300234011889340,SVP,AWI-USIABP,PACEX2,North
2018-09-15T17:29:45Z,1537032586,2018,17,30,258.729,258.729,81.64469,121.00326,-999.00,-2.1,-999.0,no,yes,no,300234011889340,SVP,AWI-USIABP,PACEX2,North
2018-09-15T18:00:00Z,1537034400,2018,18,0,258.75,258.75,81.5881,121.09299,-999.00,-2.35,-999.0,no,yes,no,300234011889340,SVP,AWI-USIABP,PACEX2,North
2018-09-15T18:30:14Z,1537036214,2018,18,30,258.771,258.771,81.53341,121.20356,-999.00,-2.35,-999.0,no,yes,no,300234011889340,SVP,AWI-USIABP,PACEX2,North
2018-09-15T19:00:28Z,1537038029,2018,19,0,258.792,258.792,81.48368,121.06751,-999.00,-2.6,-999.0,no,yes,no,300234011889340,SVP,AWI-USIABP,PACEX2,North
2018-09-15T19:29:16Z,1537039757,2018,19,30,258.812,258.812,81.44332,120.9415,-999.00,-2.8,-999.0,no,yes,no,300234011889340,SVP,AWI-USIABP,PACEX2,North
2018-09-15T19:59:31Z,1537041571,2018,20,0,258.833,258.833,81.44646,120.92273,-999.00,-2.9,-999.0,no,yes,no,300234011889340,SVP,AWI-USIABP,PACEX2,North
2018-09-15T20:29:45Z,1537043386,2018,20,30,258.854,258.854,81.44731,120.9084,-999.00,-3.0,-999.0,no,yes,no,300234011889340,SVP,AWI-USIABP,PACEX2,North
2018-09-15T21:00:00Z,1537045200,2018,21,0,258.875,258.875,81.44782,120.89045,-999.00,-3.0,-999.0,no,yes,no,300234011889340,SVP,AWI-USIABP,PACEX2,North
2018-09-15T21:30:14Z,1537047014,2018,21,30,258.896,258.896,81.44813,120.86276,-999.00,-2.95,-999.0,no,yes,no,300234011889340,SVP,AWI-USIABP,PACEX2,North
2018-09-15T22:00:28Z,1537048829,2018,22,0,258.917,258.917,81.44937,120.83134,-999.00,-3.0,-999.0,no,yes,no,300234011889340,SVP,AWI-USIABP,PACEX2,North
2018-09-15T22:30:43Z,1537050643,2018,22,30,258.938,258.938,81.45143,120.81263,-999.00,-3.15,-999.0,no,yes,no,300234011889340,SVP,AWI-USIABP,PACEX2,North
2018-09-15T22:59:31Z,1537052371,2018,23,0,258.958,258.958,81.44186,120.94755,-999.00,-3.15,-999.0,no,yes,no,300234011889340,SVP,AWI-USIABP,PACEX2,North
2018-09-15T23:29:45Z,1537054186,2018,23,30,258.979,258.979,81.4438,120.93242,-999.00,-3.25,-999.0,no,yes,no,300234011889340,SVP,AWI-USIABP,PACEX2,North
2018-09-16T00:00:00Z,1537056000,2018,0,0,259.0,259.0,81.44537,120.91058,-999.00,-3.05,-999.0,no,yes,no,300234011889340,SVP,AWI-USIABP,PACEX2,North
2018-09-16T00:30:14Z,1537057814,2018,0,30,259.021,259.021,81.44806,120.90191,-999.00,-3.2,-999.0,no,yes,no,300234011889340,SVP,AWI-USIABP,PACEX2,North
2018-09-16T01:00:28Z,1537059629,2018,1,0,259.042,259.042,81.45002,120.88837,-999.00,-3.05,-999.0,no,yes,no,300234011889340,SVP,AWI-USIABP,PACEX2,North
2018-09-16T01:29:16Z,1537061357,2018,1,30,259.062,259.062,81.45294,120.87783,-999.00,-3.15,-999.0,no,yes,no,300234011889340,SVP,AWI-USIABP,PACEX2,North
2018-09-16T01:59:31Z,1537063171,2018,2,0,259.083,259.083,81.45728,120.87177,-999.00,-3.1,-999.0,no,yes,no,300234011889340,SVP,AWI-USIABP,PACEX2,North
2018-09-16T02:29:45Z,1537064986,2018,2,30,259.104,259.104,81.4264,120.82057,-999.00,-2.85,-999.0,no,yes,no,300234011889340,SVP,AWI-USIABP,PACEX2,North
2018-09-16T03:00:00Z,1537066800,2018,3,0,259.125,259.125,81.36644,120.77491,-999.00,-2.65,-999.0,no,yes,no,300234011889340,SVP,AWI-USIABP,PACEX2,North
2018-09-16T03:30:14Z,1537068614,2018,3,30,259.146,259.146,81.31702,120.76027,-999.00,-2.45,-999.0,no,yes,no,300234011889340,SVP,AWI-USIABP,PACEX2,North
2018-09-16T04:00:28Z,1537070429,2018,4,0,259.167,259.167,81.31826,120.93855,-999.00,-2.45,-999.0,no,yes,no,300234011889340,SVP,AWI-USIABP,PACEX2,North
2018-09-16T04:30:43Z,1537072243,2018,4,30,259.188,259.188,81.32006,121.12018,-999.00,-2.35,-999.0,no,yes,no,300234011889340,SVP,AWI-USIABP,PACEX2,North
2018-09-16T04:59:31Z,1537073971,2018,5,0,259.208,259.208,81.31923,121.34121,-999.00,-2.3,-999.0,no,yes,no,300234011889340,SVP,AWI-USIABP,PACEX2,North
2018-09-16T05:29:45Z,1537075786,2018,5,30,259.229,259.229,81.31333,121.61039,-999.00,-2.1,-999.0,no,yes,no,300234011889340,SVP,AWI-USIABP,PACEX2,North
2018-09-16T06:00:00Z,1537077600,2018,6,0,259.25,259.25,81.31754,121.88944,-999.00,-2.0,-999.0,no,yes,no,300234011889340,SVP,AWI-USIABP,PACEX2,North
2018-09-16T06:30:14Z,1537079414,2018,6,30,259.271,259.271,81.32514,122.1892,-999.00,-1.85,-999.0,no,yes,no,300234011889340,SVP,AWI-USIABP,PACEX2,North
2018-09-16T07:00:28Z,1537081229,2018,7,0,259.292,259.292,81.33124,122.45278,-999.00,-1.75,-999.0,no,yes,no,300234011889340,SVP,AWI-USIABP,PACEX2,North
2018-09-16T07:29:16Z,1537082957,2018,7,30,259.312,259.312,81.33741,122.72106,-999.00,-1.55,-999.0,no,yes,no,300234011889340,SVP,AWI-USIABP,PACEX2,North
2018-09-16T07:59:31Z,1537084771,2018,8,0,259.333,259.333,81.34422,122.99347,-999.00,-1.5,-999.0,no,yes,no,300234011889340,SVP,AWI-USIABP,PACEX2,North
2018-09-16T08:29:45Z,1537086586,2018,8,30,259.354,259.354,81.35033,123.24491,-999.00,-1.4,-999.0,no,yes,no,300234011889340,SVP,AWI-USIABP,PACEX2,North
2018-09-16T09:00:00Z,1537088400,2018,9,0,259.375,259.375,81.35643,123.50546,-999.00,-1.3,-999.0,no,yes,no,300234011889340,SVP,AWI-USIABP,PACEX2,North
2018-09-16T09:30:14Z,1537090214,2018,9,30,259.396,259.396,81.36254,123.76714,-999.00,-1.15,-999.0,no,yes,no,300234011889340,SVP,AWI-USIABP,PACEX2,North
2018-09-16T10:00:28Z,1537092029,2018,10,0,259.417,259.417,81.36901,124.02987,-999.00,-1.1,-999.0,no,yes,no,300234011889340,SVP,AWI-USIABP,PACEX2,North
2018-09-16T10:30:43Z,1537093843,2018,10,30,259.438,259.438,81.37306,124.3012,-999.00,-1.05,-999.0,no,yes,no,300234011889340,SVP,AWI-USIABP,PACEX2,North
2018-09-16T10:59:31Z,1537095571,2018,11,0,259.458,259.458,81.34471,124.4769,-999.00,-1.0,-999.0,no,yes,no,300234011889340,SVP,AWI-USIABP,PACEX2,North
2018-09-16T11:29:45Z,1537097386,2018,11,30,259.479,259.479,81.31654,124.35289,-999.00,-0.95,-999.0,no,yes,no,300234011889340,SVP,AWI-USIABP,PACEX2,North
2018-09-16T12:00:00Z,1537099200,2018,12,0,259.5,259.5,81.34238,124.14154,-999.00,-0.9,-999.0,no,yes,no,300234011889340,SVP,AWI-USIABP,PACEX2,North
2018-09-16T12:30:14Z,1537101014,2018,12,30,259.521,259.521,81.37028,124.20767,-999.00,-0.9,-999.0,no,yes,no,300234011889340,SVP,AWI-USIABP,PACEX2,North
2018-09-16T13:00:28Z,1537102829,2018,13,0,259.542,259.542,81.37914,124.46433,-999.00,-0.85,-999.0,no,yes,no,300234011889340,SVP,AWI-USIABP,PACEX2,North